Location: Arborea
(39.7744°N, 8.5819°E)
Time: 07:40:09
(UTC+00:00)

In-Cosmos 22 Rocket - Pass Details

Date: 24 October 2021
Orbit: 790 x 888 km, 81.2° (Epoch: 02 December)

Event Time Altitude Azimuth Distance (km) Brightness Sun altitude
Rises 18:33:12 0° 347° (NNW) 3,299 7.5 -23.6°
Reaches altitude 10° 18:35:36 10° 344° (NNW) 2,363 6.8 -24.1°
Maximum altitude 18:40:50 63° 264° (W) 882 4.4 -25.1°
Drops below altitude 10° 18:46:04 10° 185° (S) 2,359 6.5 -26.1°
Sets 18:48:27 0° 182° (S) 3,294 7.2 -26.5°
